Marshall, MI

4:36 AM EDT on June 24, 2017 (GMT -0400)
Brooks

Weather History for KRMY - January, 2014

Change the Weather History Date:

Monday, January 20, 2014

  Actual Average (KBTL) Record (KBTL)
Temperature  
Mean Temperature 21 °F -  
Max Temperature 32 °F 26 °F 51 °F (2006)
Min Temperature 10 °F 14 °F -2 °F (2009)
Degree Days  
Heating Degree Days 44    
Moisture  
Dew Point 17 °F    
Average Humidity 75    
Maximum Humidity 85    
Minimum Humidity 64    
Precipitation  
Precipitation 0.00 in - - ()
Sea Level Pressure  
Sea Level Pressure 29.78 in    
Wind  
Wind Speed 5 mph (NNW)    
Max Wind Speed 13 mph    
Max Gust Speed 21 mph    
Visibility 10 miles    
Events Snow    
Averages and records for this station are not official NWS values.
T = Trace of Precipitation, MM = Missing Value Source: NWS Daily Summary

Daily Weather History Graph

Daily Weather History Graph

Search for Another Location

Airport or City:

Trip Planner

Search our weather history database for the weather conditions in past years. The results will help you decide how hot, cold, wet, or windy it might be!

Date:

Astronomy

Jan. 20, 2014 Rise Set
Actual Time 8:03 AM EST 5:38 PM EST
Civil Twilight 7:32 AM EST 6:09 PM EST
Nautical Twilight 6:58 AM EST 6:43 PM EST
Astronomical Twilight 6:25 AM EST 7:17 PM EST
Moon 10:19 PM EST (1/20) 9:57 AM EST (1/20)
Length of Visible Light 10h 36m
Length of Day
9h 35m
Waning Gibbous, 83% of the Moon is Illuminated
Jan 20
Waning Gibbous
Jan 24
Last Quarter
Jan 30
New
Feb 6
First Quarter
Feb 14
Full

Hourly Weather History & Observations

Time (EST) Temp. Windchill Dew Point Humidity Pressure Visibility Wind Dir Wind Speed Gust Speed Precip Events Conditions
12:13 AM 29.8 °F 24.9 °F 24.8 °F 81% 29.48 in 10.0 mi SSW 4.6 mph - N/A   Overcast
12:34 AM 30.2 °F - 24.8 °F 80% 29.48 in 10.0 mi North - - N/A   Overcast
12:54 AM 30.2 °F 26.7 °F 25.2 °F 82% 29.48 in 10.0 mi SW 3.5 mph - N/A   Overcast
1:13 AM 30.2 °F 26.7 °F 25.3 °F 82% 29.48 in 10.0 mi SW 3.5 mph - N/A   Overcast
1:33 AM 30.2 °F 26.7 °F 25.5 °F 83% 29.48 in 10.0 mi WSW 3.5 mph - N/A   Overcast
1:54 AM 30.2 °F - 25.7 °F 83% 29.48 in 10.0 mi Calm Calm - N/A   Overcast
2:13 AM 30.4 °F 26.9 °F 26.1 °F 84% 29.49 in 10.0 mi WNW 3.5 mph - N/A   Overcast
2:34 AM 32.0 °F 26.4 °F 27.1 °F 82% 29.51 in 10.0 mi WNW 5.8 mph - N/A   Overcast
2:54 AM 32.2 °F 26.7 °F 27.5 °F 83% 29.52 in 10.0 mi NW 5.8 mph - N/A   Overcast
3:13 AM 32.0 °F 25.6 °F 27.3 °F 83% 29.54 in 10.0 mi NW 6.9 mph - N/A   Overcast
3:34 AM 32.0 °F 26.4 °F 27.0 °F 82% 29.55 in 10.0 mi WNW 5.8 mph - N/A   Overcast
3:54 AM 31.8 °F 24.6 °F 26.6 °F 81% 29.56 in 10.0 mi WNW 8.1 mph - N/A   Overcast
4:13 AM 31.8 °F 25.4 °F 26.6 °F 81% 29.57 in 10.0 mi WNW 6.9 mph - N/A   Overcast
4:34 AM 31.6 °F 26.0 °F 26.6 °F 82% 29.58 in 10.0 mi West 5.8 mph - N/A   Overcast
4:54 AM 31.6 °F 27.0 °F 26.4 °F 81% 29.59 in 10.0 mi WNW 4.6 mph - N/A   Overcast
5:13 AM 31.5 °F 26.8 °F 26.6 °F 82% 29.61 in 10.0 mi WNW 4.6 mph - N/A   Overcast
5:34 AM 31.5 °F 23.5 °F 26.6 °F 82% 29.62 in 10.0 mi WNW 9.2 mph - N/A   Overcast
5:54 AM 31.6 °F 23.7 °F 26.4 °F 81% 29.63 in 10.0 mi WNW 9.2 mph - N/A   Overcast
6:13 AM 31.1 °F 22.4 °F 26.1 °F 82% 29.65 in 10.0 mi NW 10.4 mph - N/A   Overcast
6:34 AM 30.2 °F 20.2 °F 25.2 °F 82% 29.67 in 10.0 mi NNW 12.7 mph 20.7 mph N/A   Overcast
6:53 AM 28.4 °F 20.4 °F 24.1 °F 84% 29.69 in 10.0 mi NNW 8.1 mph 18.4 mph N/A   Overcast
7:14 AM 27.0 °F 23.0 °F 23.0 °F 85% 29.70 in 10.0 mi NW 3.5 mph - N/A   Overcast
7:34 AM 26.1 °F 19.4 °F 21.7 °F 84% 29.71 in 10.0 mi North 5.8 mph - N/A   Overcast
7:53 AM 25.0 °F 15.5 °F 18.5 °F 76% 29.72 in 10.0 mi NW 9.2 mph - N/A   Overcast
8:14 AM 24.3 °F - 17.2 °F 75% 29.73 in 10.0 mi Calm Calm - N/A   Overcast
8:34 AM 23.9 °F - 17.6 °F 77% 29.74 in 10.0 mi Calm Calm - N/A   Overcast
8:53 AM 24.3 °F 19.9 °F 17.6 °F 76% 29.75 in 10.0 mi NW 3.5 mph - N/A   Overcast
9:14 AM 24.6 °F 16.7 °F 17.4 °F 74% 29.78 in 10.0 mi NW 6.9 mph - N/A   Overcast
9:34 AM 23.9 °F 16.8 °F 15.8 °F 71% 29.80 in 10.0 mi NNW 5.8 mph - N/A   Overcast
9:53 AM 23.9 °F 19.5 °F 15.4 °F 70% 29.80 in 10.0 mi NNW 3.5 mph - N/A   Overcast
10:14 AM 24.6 °F - 15.4 °F 68% 29.80 in 10.0 mi Calm Calm - N/A   Overcast
10:34 AM 25.7 °F - 15.8 °F 66% 29.81 in 10.0 mi Calm Calm - N/A   Overcast
10:53 AM 26.2 °F 22.1 °F 16.2 °F 66% 29.82 in 10.0 mi WNW 3.5 mph - N/A   Overcast
11:14 AM 26.4 °F 20.9 °F 16.2 °F 65% 29.82 in 10.0 mi NW 4.6 mph - N/A   Overcast
11:34 AM 26.6 °F - 16.2 °F 65% 29.81 in 10.0 mi Calm Calm - N/A   Overcast
11:53 AM 26.6 °F 21.2 °F 16.3 °F 65% 29.81 in 10.0 mi WNW 4.6 mph - N/A   Overcast
12:14 PM 27.1 °F 23.2 °F 16.3 °F 64% 29.81 in 10.0 mi NW 3.5 mph - N/A   Overcast
12:33 PM 27.1 °F 18.2 °F 16.3 °F 64% 29.82 in 10.0 mi West 9.2 mph - N/A   Overcast
12:54 PM 26.6 °F 19.1 °F 15.8 °F 64% 29.82 in 10.0 mi WNW 6.9 mph - N/A   Overcast
1:14 PM 27.1 °F 20.7 °F 16.5 °F 64% 29.82 in 10.0 mi WNW 5.8 mph - N/A   Overcast
1:33 PM 26.6 °F 19.1 °F 16.0 °F 64% 29.82 in 10.0 mi NW 6.9 mph - N/A Snow Light Snow
1:54 PM 26.2 °F 17.8 °F 15.6 °F 64% 29.82 in 10.0 mi West 8.1 mph - N/A   Overcast
2:14 PM 25.9 °F 20.3 °F 16.2 °F 67% 29.82 in 10.0 mi WNW 4.6 mph - N/A Snow Light Snow
2:33 PM 25.5 °F 16.9 °F 16.2 °F 68% 29.84 in 10.0 mi West 8.1 mph - N/A Snow Light Snow
2:54 PM 25.2 °F 16.5 °F 15.3 °F 66% 29.84 in 10.0 mi NW 8.1 mph - N/A   Overcast
3:14 PM 24.8 °F - 14.9 °F 66% 29.84 in 10.0 mi Calm Calm - N/A   Overcast
3:33 PM 24.6 °F 18.8 °F 14.9 °F 67% 29.85 in 10.0 mi NW 4.6 mph - N/A   Overcast
3:54 PM 24.3 °F 19.9 °F 14.9 °F 68% 29.86 in 10.0 mi NW 3.5 mph - N/A   Overcast
4:14 PM 23.7 °F 19.3 °F 14.9 °F 69% 29.86 in 10.0 mi NW 3.5 mph - N/A   Overcast
4:33 PM 23.9 °F 19.5 °F 14.9 °F 69% 29.87 in 10.0 mi NNW 3.5 mph - N/A   Overcast
4:54 PM 23.4 °F 16.2 °F 14.9 °F 70% 29.89 in 10.0 mi NNW 5.8 mph - N/A   Overcast
5:14 PM 22.8 °F 14.5 °F 14.9 °F 72% 29.89 in 10.0 mi NNW 6.9 mph - N/A   Overcast
5:33 PM 22.6 °F - 14.7 °F 72% 29.89 in 10.0 mi Calm Calm - N/A Snow Light Snow
5:54 PM 22.1 °F 17.4 °F 14.5 °F 73% 29.90 in 10.0 mi NNW 3.5 mph - N/A Snow Light Snow
6:13 PM 21.7 °F - 14.5 °F 74% 29.91 in 10.0 mi Calm Calm - N/A   Overcast
6:34 PM 21.2 °F 16.4 °F 14.4 °F 75% 29.92 in 10.0 mi North 3.5 mph - N/A   Overcast
6:54 PM 21.2 °F 14.9 °F 14.5 °F 75% 29.93 in 10.0 mi North 4.6 mph - N/A   Overcast
7:13 PM 20.7 °F 15.8 °F 13.8 °F 75% 29.94 in 10.0 mi North 3.5 mph - N/A   Overcast
7:34 PM 20.3 °F 13.8 °F 13.8 °F 76% 29.94 in 10.0 mi NNE 4.6 mph - N/A   Overcast
7:53 PM 19.9 °F 14.9 °F 13.8 °F 77% 29.94 in 10.0 mi North 3.5 mph - N/A Snow Light Snow
8:13 PM 19.4 °F 14.3 °F 13.8 °F 79% 29.95 in 10.0 mi NNE 3.5 mph - N/A Snow Light Snow
8:34 PM 19.0 °F 12.3 °F 14.0 °F 81% 29.96 in 10.0 mi NNE 4.6 mph - N/A Snow Light Snow
8:53 PM 15.8 °F 7.2 °F 11.3 °F 82% 29.98 in 2.5 mi NNE 5.8 mph - N/A Snow Light Snow
9:13 PM 14.0 °F 3.9 °F 9.1 °F 81% 29.99 in 4.0 mi NE 6.9 mph - N/A Snow Light Snow
9:26 PM 13.3 °F 1.1 °F 7.7 °F 78% 29.99 in 4.0 mi NE 9.2 mph 17.3 mph N/A Snow Light Snow
9:45 PM 12.2 °F -1.0 °F 6.8 °F 79% 29.99 in 4.0 mi NNE 10.4 mph 19.6 mph N/A   Overcast
10:05 PM 12.2 °F 1.7 °F 5.0 °F 73% 29.99 in 7.0 mi NE 6.9 mph 17.3 mph N/A   Overcast
10:25 PM 11.3 °F 0.7 °F 5.9 °F 79% 30.00 in 10.0 mi NE 6.9 mph - N/A Snow Light Snow
10:34 PM 11.3 °F 3.3 °F 5.9 °F 79% 30.00 in 10.0 mi NNE 4.6 mph - N/A Snow Light Snow
10:53 PM 10.8 °F 2.7 °F 5.4 °F 79% 30.01 in 10.0 mi NE 4.6 mph - N/A Snow Light Snow
11:14 PM 10.4 °F 0.8 °F 4.8 °F 78% 30.02 in 10.0 mi NNE 5.8 mph - N/A   Overcast
11:34 PM 10.2 °F 2.0 °F 3.9 °F 76% 30.02 in 10.0 mi NE 4.6 mph - N/A   Overcast
11:53 PM 10.0 °F -0.9 °F 3.4 °F 74% 30.02 in 10.0 mi NNE 6.9 mph - N/A   Overcast